Aeroporto :
LOGIN :

Iscrizione | Disclaimer

   EN    FR    IT 

 










Sommario :    VFR   VFR Marginale   IFR   IFR Intensivo   IFR Molto Intensivo
Visibilità : 
Base nubi : 
>= 8 km
>= 3000ft
5 / 8 km
1000 / 3000 ft
1500m / 5 km
500 / 1000 ft
800 / 1500m
200 / 500 ft
< 800m
< 200 ft
Simboli :   Temporali  Nebbia  Neve Forte  Precipitazioni Forti  Vento > 20 kt
SIGMETs :   Varie  Temporali  Ghiacco  Turbolenza  Onda orograficha  Ceneri Vulcaniche






- Altitudine del aeroporto : 1299 ft


EDTY - Adolf Würth

ULTIMO METAR :
  • 271650Z 10009KT CAVOK M00/M01 Q1019

METARs OBSOLETI :
  • 271620Z 09008KT CAVOK 01/M00 Q1019
  • 271550Z 08006KT CAVOK 02/01 Q1019
  • 271520Z 06005KT CAVOK 04/02 Q1019
  • 271450Z 06005KT CAVOK 05/02 Q1019
  • 271420Z 09006KT CAVOK 06/03 Q1019

TAF TAF EDTY
Valido dal 27 a 15 ore il 28 a 00 ore UTC


271400Z 2715/2724 08005KT CAVOK
BECMG 2716/2719 3000 BR BKN004
PROB30
TEMPO 2719/2724 0400 FZFG VV001



MetMap, La meteo Aeronautica in un colpo d'occhio ! - Copyright ORBIFLY Dicembre 2007 - Disclaimer

ORBIFLY MET'MAP TEAM :

Programmazione e sviluppo : Alexandra Zaïnal
Concezione : Baudouin d'Aumeries
Aiuto per la programmazione : Marc-Olivier Méhu
Supporto tecnico e logistico : Manuel Goepfert
Aiuto per la traduzione : Arnaldo La Scala

Contatto : metmap@orbifly.com




FONTI E CREDITI :

   NOAA